{"data":{"norad_id":41603,"intl_designator":"2016-040E","name":"LAPAN-A3","alt_names":[],"object_type":"PAYLOAD","status":"ACTIVE","operator":null,"country":"INDO","launch_date":"2016-06-22","launch_site_code":"SRILR","launch_vehicle":null,"mission":null,"orbit_class":"UNKNOWN","rcs_meters":0.2815,"size_class":null,"mass_kg":null,"dimensions":null,"purposes":["earth_obs"],"wikipedia_slug":null,"has_3d_model":false,"image_url":null,"decayed_at":null,"tle_current":{"epoch":"2026-05-25T03:35:46.353984Z","epoch_age_seconds":59320,"freshness":"FRESH","line1":"1 41603U 16040E   26145.14984206  .00002864  00000+0  92197-4 0  9998","line2":"2 41603  97.1486 142.0565 0012244  97.2170 263.0465 15.32936827551286","mean_motion":15.32936827,"eccentricity":0.0012244,"inclination_deg":97.1486,"raan_deg":142.0565,"arg_perigee_deg":97.217,"mean_anomaly_deg":263.0465,"bstar":9.2197e-5,"rev_number":55128,"period_min":93.937334835782,"perigee_km":458.67430369733,"apogee_km":475.43681123205,"semimajor_km":6845.1925574647,"source":"CELESTRAK","updated_at":"2026-05-25T13:38:12.821735Z"}}}